Location: Bonnesvalyn
(49.1218°N, 3.3177°E)
Time: 13:36:42
(UTC+00:00)

SKYMED 2 - Pass Details

Date: 09 February 2023
Orbit: 621 x 623 km, 97.9° (Epoch: 22 March)

Event Time Altitude Azimuth Distance (km) Brightness Sun altitude
Rises 18:05:54 0° 13° (NNE) 2,919 6.8 -11.8°
Reaches altitude 10° 18:08:06 10° 13° (NNE) 2,007 6.0 -12.1°
Maximum altitude 18:12:28 85° 286° (WNW) 633 3.6 -12.8°
Drops below altitude 10° 18:16:49 10° 198° (SSW) 1,989 6.5 -13.5°
Sets 18:18:59 0° 197° (SSW) 2,890 7.3 -13.9°
